Station Historical Data
Daily Summary for February 3, 2017 Units:  English    Metric   Both
« Previous Day
Next Day »
Daily Weekly Monthly Yearly Custom
  High: Low: Average:
Temperature: 21.9 °F 14.6 °F 17.7 °F
Dew Point: 9.2 °F 6.1 °F 7.8 °F
Humidity: 74% 53% 65%
Wind Speed: 17.0mph 2.0mph 6.8mph
Wind Gust: 19.0mph - -
Wind- - West
Pressure: 30.35 in 30.21 in -
Precipitation: 0.00 in    
Historical Graphs
 
 
Tabular Data for February 3, 2017
Time Temperature Dew Point Pressure Wind Wind Speed Wind Gust Humidity Rainfall Rate (Hourly)
00:04 18.8 °F 8.6 °F 30.22 in West 3.0 mph 10.0 mph 64% 0.00 in
00:09 18.8 °F 9.0 °F 30.22 in West 6.0 mph 12.0 mph 65% 0.00 in
00:14 18.7 °F 8.9 °F 30.22 in West 6.0 mph 13.0 mph 65% 0.00 in
00:19 18.7 °F 8.9 °F 30.22 in West 7.0 mph 13.0 mph 65% 0.00 in
00:24 18.5 °F 9.0 °F 30.22 in WSW 5.0 mph 12.0 mph 66% 0.00 in
00:29 18.5 °F 9.0 °F 30.22 in WNW 5.0 mph 13.0 mph 66% 0.00 in
00:34 18.3 °F 8.8 °F 30.23 in West 9.0 mph 17.0 mph 66% 0.00 in
00:39 18.0 °F 8.5 °F 30.22 in WNW 7.0 mph 14.0 mph 66% 0.00 in
00:44 17.9 °F 8.5 °F 30.22 in West 7.0 mph 14.0 mph 66% 0.00 in
00:49 17.6 °F 8.5 °F 30.22 in West 7.0 mph 14.0 mph 67% 0.00 in
00:54 17.4 °F 8.3 °F 30.22 in WNW 6.0 mph 13.0 mph 67% 0.00 in
00:59 17.2 °F 8.4 °F 30.22 in West 6.0 mph 16.0 mph 68% 0.00 in
01:04 17.1 °F 8.3 °F 30.22 in WNW 7.0 mph 10.0 mph 68% 0.00 in
01:09 17.0 °F 8.3 °F 30.22 in WNW 5.0 mph 10.0 mph 68% 0.00 in
01:14 16.9 °F 8.2 °F 30.22 in West 4.0 mph 10.0 mph 68% 0.00 in
01:19 16.7 °F 8.3 °F 30.22 in West 4.0 mph 10.0 mph 69% 0.00 in
01:24 16.7 °F 8.3 °F 30.22 in West 5.0 mph 11.0 mph 69% 0.00 in
01:29 16.7 °F 8.3 °F 30.22 in West 5.0 mph 11.0 mph 69% 0.00 in
01:34 16.6 °F 8.2 °F 30.22 in West 5.0 mph 9.0 mph 69% 0.00 in
01:39 16.5 °F 8.1 °F 30.22 in WNW 5.0 mph 10.0 mph 69% 0.00 in
01:44 16.5 °F 8.1 °F 30.22 in WNW 6.0 mph 8.0 mph 69% 0.00 in
01:49 16.4 °F 8.3 °F 30.22 in West 5.0 mph 13.0 mph 70% 0.00 in
01:54 16.4 °F 8.3 °F 30.22 in West 6.0 mph 13.0 mph 70% 0.00 in
01:59 16.2 °F 8.1 °F 30.22 in West 3.0 mph 15.0 mph 70% 0.00 in
02:04 16.1 °F 8.3 °F 30.22 in West 4.0 mph 11.0 mph 71% 0.00 in
02:09 16.0 °F 8.3 °F 30.22 in West 5.0 mph 10.0 mph 71% 0.00 in
02:14 16.0 °F 8.3 °F 30.22 in WNW 10.0 mph 13.0 mph 71% 0.00 in
02:19 16.0 °F 8.6 °F 30.23 in West 7.0 mph 13.0 mph 72% 0.00 in
02:24 16.1 °F 8.7 °F 30.23 in West 6.0 mph 13.0 mph 72% 0.00 in
02:29 16.1 °F 8.7 °F 30.23 in West 7.0 mph 17.0 mph 72% 0.00 in
02:34 16.0 °F 8.6 °F 30.23 in West 7.0 mph 17.0 mph 72% 0.00 in
02:39 16.1 °F 8.7 °F 30.23 in West 6.0 mph 12.0 mph 72% 0.00 in
02:44 16.1 °F 8.7 °F 30.23 in West 6.0 mph 13.0 mph 72% 0.00 in
02:49 16.1 °F 9.0 °F 30.23 in West 8.0 mph 16.0 mph 73% 0.00 in
02:54 16.2 °F 9.1 °F 30.24 in NW 3.0 mph 13.0 mph 73% 0.00 in
02:59 16.3 °F 8.9 °F 30.24 in West 7.0 mph 14.0 mph 72% 0.00 in
03:04 16.4 °F 8.9 °F 30.24 in West 6.0 mph 16.0 mph 72% 0.00 in
03:09 16.4 °F 8.9 °F 30.24 in West 8.0 mph 14.0 mph 72% 0.00 in
03:14 16.2 °F 8.4 °F 30.24 in WNW 14.0 mph 19.0 mph 71% 0.00 in
03:19 16.2 °F 8.8 °F 30.24 in WSW 6.0 mph 16.0 mph 72% 0.00 in
03:24 16.1 °F 8.7 °F 30.24 in West 9.0 mph 18.0 mph 72% 0.00 in
03:29 16.0 °F 8.6 °F 30.23 in West 8.0 mph 18.0 mph 72% 0.00 in
03:34 15.9 °F 8.5 °F 30.23 in West 7.0 mph 15.0 mph 72% 0.00 in
03:39 15.7 °F 8.3 °F 30.23 in West 6.0 mph 14.0 mph 72% 0.00 in
03:44 15.4 °F 8.0 °F 30.23 in West 7.0 mph 14.0 mph 72% 0.00 in
03:49 15.4 °F 8.0 °F 30.23 in West 7.0 mph 14.0 mph 72% 0.00 in
03:54 15.2 °F 7.8 °F 30.23 in WSW 6.0 mph 13.0 mph 72% 0.00 in
03:59 15.1 °F 8.0 °F 30.23 in NNW 2.0 mph 11.0 mph 73% 0.00 in
04:04 15.1 °F 8.0 °F 30.23 in WSW 3.0 mph 12.0 mph 73% 0.00 in
04:09 14.9 °F 7.8 °F 30.23 in West 8.0 mph 9.0 mph 73% 0.00 in
04:14 14.9 °F 7.8 °F 30.23 in WNW 8.0 mph 10.0 mph 73% 0.00 in
04:19 14.9 °F 7.8 °F 30.23 in WSW 5.0 mph 10.0 mph 73% 0.00 in
04:24 14.8 °F 7.7 °F 30.23 in WNW 7.0 mph 11.0 mph 73% 0.00 in
04:29 14.7 °F 7.9 °F 30.23 in West 6.0 mph 12.0 mph 74% 0.00 in
04:34 14.6 °F 7.5 °F 30.23 in West 6.0 mph 12.0 mph 73% 0.00 in
04:39 14.6 °F 7.8 °F 30.24 in West 6.0 mph 12.0 mph 74% 0.00 in
04:44 14.7 °F 7.9 °F 30.24 in West 6.0 mph 16.0 mph 74% 0.00 in
04:49 14.9 °F 8.1 °F 30.23 in West 6.0 mph 16.0 mph 74% 0.00 in
04:54 15.2 °F 8.1 °F 30.24 in West 9.0 mph 15.0 mph 73% 0.00 in
04:59 15.4 °F 8.3 °F 30.23 in West 7.0 mph 15.0 mph 73% 0.00 in
05:04 15.5 °F 8.1 °F 30.23 in West 10.0 mph 14.0 mph 72% 0.00 in
05:09 15.7 °F 8.3 °F 30.23 in WNW 7.0 mph 14.0 mph 72% 0.00 in
05:14 15.7 °F 8.3 °F 30.23 in WNW 4.0 mph 13.0 mph 72% 0.00 in
05:19 15.8 °F 8.4 °F 30.23 in West 7.0 mph 14.0 mph 72% 0.00 in
05:24 15.9 °F 8.2 °F 30.23 in NW 7.0 mph 14.0 mph 71% 0.00 in
05:29 15.9 °F 8.2 °F 30.23 in West 4.0 mph 15.0 mph 71% 0.00 in
05:34 15.9 °F 8.2 °F 30.23 in WNW 8.0 mph 16.0 mph 71% 0.00 in
05:39 15.9 °F 8.2 °F 30.23 in West 8.0 mph 16.0 mph 71% 0.00 in
05:44 15.9 °F 8.2 °F 30.23 in WNW 7.0 mph 15.0 mph 71% 0.00 in
05:49 15.9 °F 8.2 °F 30.23 in WNW 7.0 mph 12.0 mph 71% 0.00 in
05:54 16.0 °F 8.3 °F 30.24 in WNW 7.0 mph 14.0 mph 71% 0.00 in
05:59 16.0 °F 8.3 °F 30.24 in West 7.0 mph 14.0 mph 71% 0.00 in
06:04 16.0 °F 7.9 °F 30.24 in NW 5.0 mph 13.0 mph 70% 0.00 in
06:09 16.2 °F 7.8 °F 30.24 in NW 5.0 mph 15.0 mph 69% 0.00 in
06:14 16.2 °F 7.8 °F 30.24 in West 7.0 mph 14.0 mph 69% 0.00 in
06:19 16.2 °F 7.8 °F 30.24 in West 7.0 mph 10.0 mph 69% 0.00 in
06:24 16.2 °F 7.8 °F 30.24 in NW 5.0 mph 16.0 mph 69% 0.00 in
06:29 16.2 °F 7.8 °F 30.24 in WNW 9.0 mph 15.0 mph 69% 0.00 in
06:34 16.2 °F 7.8 °F 30.24 in WSW 6.0 mph 17.0 mph 69% 0.00 in
06:39 16.2 °F 7.5 °F 30.24 in West 7.0 mph 17.0 mph 68% 0.00 in
06:44 16.2 °F 7.5 °F 30.24 in West 8.0 mph 15.0 mph 68% 0.00 in
06:49 16.1 °F 7.4 °F 30.24 in West 8.0 mph 16.0 mph 68% 0.00 in
06:54 16.0 °F 7.0 °F 30.24 in West 8.0 mph 19.0 mph 67% 0.00 in
06:59 15.8 °F 7.1 °F 30.24 in West 7.0 mph 19.0 mph 68% 0.00 in
07:04 15.6 °F 6.9 °F 30.24 in WNW 3.0 mph 11.0 mph 68% 0.00 in
07:09 15.5 °F 6.8 °F 30.24 in WSW 4.0 mph 11.0 mph 68% 0.00 in
07:14 15.5 °F 6.8 °F 30.24 in West 6.0 mph 15.0 mph 68% 0.00 in
07:19 15.6 °F 6.9 °F 30.24 in WSW 7.0 mph 15.0 mph 68% 0.00 in
07:24 15.5 °F 6.8 °F 30.25 in WNW 8.0 mph 12.0 mph 68% 0.00 in
07:29 15.5 °F 6.8 °F 30.25 in West 7.0 mph 10.0 mph 68% 0.00 in
07:34 15.4 °F 6.7 °F 30.25 in SW 12.0 mph 12.0 mph 68% 0.00 in
07:39 15.3 °F 6.6 °F 30.25 in WNW 4.0 mph 12.0 mph 68% 0.00 in
07:44 15.4 °F 7.0 °F 30.25 in West 5.0 mph 12.0 mph 69% 0.00 in
07:49 15.6 °F 7.2 °F 30.25 in West 6.0 mph 12.0 mph 69% 0.00 in
07:54 15.6 °F 7.2 °F 30.26 in West 6.0 mph 12.0 mph 69% 0.00 in
07:59 15.7 °F 7.3 °F 30.25 in West 6.0 mph 12.0 mph 69% 0.00 in
08:04 15.9 °F 7.2 °F 30.25 in West 6.0 mph 12.0 mph 68% 0.00 in
08:09 16.1 °F 7.4 °F 30.25 in West 5.0 mph 11.0 mph 68% 0.00 in
08:14 16.4 °F 7.3 °F 30.26 in West 6.0 mph 10.0 mph 67% 0.00 in
08:19 16.6 °F 7.2 °F 30.26 in SW 4.0 mph 12.0 mph 66% 0.00 in
08:24 16.8 °F 7.4 °F 30.26 in West 8.0 mph 10.0 mph 66% 0.00 in
08:29 17.2 °F 7.8 °F 30.26 in West 6.0 mph 11.0 mph 66% 0.00 in
08:34 17.4 °F 7.3 °F 30.26 in West 11.0 mph 15.0 mph 64% 0.00 in
08:39 17.4 °F 7.3 °F 30.26 in West 4.0 mph 11.0 mph 64% 0.00 in
08:44 17.5 °F 7.4 °F 30.26 in West 3.0 mph 10.0 mph 64% 0.00 in
08:49 17.9 °F 7.8 °F 30.26 in West 6.0 mph 12.0 mph 64% 0.00 in
08:54 18.3 °F 8.1 °F 30.26 in West 6.0 mph 12.0 mph 64% 0.00 in
08:59 18.4 °F 7.9 °F 30.25 in West 6.0 mph 12.0 mph 63% 0.00 in
09:04 18.5 °F 8.0 °F 30.25 in West 7.0 mph 14.0 mph 63% 0.00 in
09:09 18.7 °F 8.2 °F 30.25 in West 7.0 mph 14.0 mph 63% 0.00 in
09:14 18.8 °F 7.9 °F 30.25 in WNW 6.0 mph 11.0 mph 62% 0.00 in
09:19 19.0 °F 8.1 °F 30.25 in WSW 4.0 mph 10.0 mph 62% 0.00 in
09:24 18.8 °F 7.6 °F 30.25 in WNW 7.0 mph 14.0 mph 61% 0.00 in
09:29 18.7 °F 7.5 °F 30.25 in West 11.0 mph 14.0 mph 61% 0.00 in
09:34 18.6 °F 7.4 °F 30.26 in WNW 11.0 mph 12.0 mph 61% 0.00 in
09:39 18.6 °F 7.7 °F 30.26 in West 8.0 mph 14.0 mph 62% 0.00 in
09:44 18.4 °F 7.2 °F 30.26 in West 5.0 mph 15.0 mph 61% 0.00 in
09:49 18.9 °F 7.7 °F 30.26 in West 8.0 mph 12.0 mph 61% 0.00 in
09:54 19.5 °F 8.2 °F 30.26 in West 5.0 mph 12.0 mph 61% 0.00 in
09:59 19.7 °F 8.0 °F 30.26 in West 6.0 mph 13.0 mph 60% 0.00 in
10:04 19.4 °F 7.4 °F 30.26 in West 6.0 mph 13.0 mph 59% 0.00 in
10:09 19.0 °F 6.6 °F 30.26 in West 7.0 mph 14.0 mph 58% 0.00 in
10:14 19.1 °F 6.7 °F 30.26 in NW 7.0 mph 14.0 mph 58% 0.00 in
10:19 19.9 °F 7.5 °F 30.26 in West 3.0 mph 16.0 mph 58% 0.00 in
10:24 20.0 °F 7.2 °F 30.26 in West 8.0 mph 16.0 mph 57% 0.00 in
10:29 19.8 °F 7.0 °F 30.26 in WSW 7.0 mph 15.0 mph 57% 0.00 in
10:34 19.9 °F 7.1 °F 30.26 in NW 3.0 mph 14.0 mph 57% 0.00 in
10:44 20.1 °F 6.9 °F 30.26 in West 6.0 mph 14.0 mph 56% 0.00 in
10:49 20.9 °F 7.2 °F 30.26 in West 7.0 mph 13.0 mph 55% 0.00 in
10:54 20.6 °F 6.6 °F 30.26 in West 7.0 mph 15.0 mph 54% 0.00 in
10:59 20.7 °F 6.7 °F 30.26 in West 7.0 mph 15.0 mph 54% 0.00 in
11:04 20.7 °F 6.2 °F 30.26 in West 7.0 mph 12.0 mph 53% 0.00 in
11:09 20.9 °F 6.4 °F 30.26 in WNW 7.0 mph 17.0 mph 53% 0.00 in
11:14 20.3 °F 6.3 °F 30.26 in West 7.0 mph 17.0 mph 54% 0.00 in
11:19 20.1 °F 6.1 °F 30.25 in WSW 8.0 mph 16.0 mph 54% 0.00 in
11:24 20.4 °F 6.8 °F 30.25 in WSW 7.0 mph 17.0 mph 55% 0.00 in
11:29 20.1 °F 6.9 °F 30.25 in WSW 8.0 mph 17.0 mph 56% 0.00 in
11:34 19.8 °F 6.6 °F 30.25 in West 5.0 mph 15.0 mph 56% 0.00 in
11:39 20.3 °F 7.1 °F 30.24 in SW 10.0 mph 15.0 mph 56% 0.00 in
11:44 20.7 °F 7.1 °F 30.24 in West 6.0 mph 11.0 mph 55% 0.00 in
11:49 20.6 °F 6.6 °F 30.24 in WSW 8.0 mph 12.0 mph 54% 0.00 in
11:54 21.1 °F 7.8 °F 30.23 in SSW 10.0 mph 15.0 mph 56% 0.00 in
11:59 20.9 °F 7.6 °F 30.23 in WSW 10.0 mph 13.0 mph 56% 0.00 in
12:04 20.6 °F 7.0 °F 30.23 in WSW 8.0 mph 16.0 mph 55% 0.00 in
12:09 20.9 °F 7.6 °F 30.23 in WSW 7.0 mph 16.0 mph 56% 0.00 in
12:14 21.2 °F 7.5 °F 30.23 in WSW 6.0 mph 14.0 mph 55% 0.00 in
12:19 21.0 °F 6.9 °F 30.22 in WSW 7.0 mph 17.0 mph 54% 0.00 in
12:24 21.1 °F 7.0 °F 30.22 in WSW 8.0 mph 17.0 mph 54% 0.00 in
12:29 21.5 °F 7.8 °F 30.22 in WSW 11.0 mph 12.0 mph 55% 0.00 in
12:34 21.2 °F 7.9 °F 30.22 in NW 8.0 mph 17.0 mph 56% 0.00 in
12:39 21.2 °F 7.9 °F 30.22 in WSW 8.0 mph 17.0 mph 56% 0.00 in
12:44 21.1 °F 7.8 °F 30.22 in West 3.0 mph 19.0 mph 56% 0.00 in
12:49 20.8 °F 7.6 °F 30.22 in WSW 10.0 mph 19.0 mph 56% 0.00 in
12:54 20.5 °F 8.8 °F 30.22 in West 11.0 mph 17.0 mph 60% 0.00 in
12:59 20.2 °F 8.5 °F 30.22 in West 4.0 mph 18.0 mph 60% 0.00 in
13:04 20.0 °F 8.3 °F 30.22 in WSW 7.0 mph 14.0 mph 60% 0.00 in
13:09 19.9 °F 7.9 °F 30.22 in West 8.0 mph 16.0 mph 59% 0.00 in
13:14 19.8 °F 7.4 °F 30.22 in West 8.0 mph 16.0 mph 58% 0.00 in
13:19 20.1 °F 8.4 °F 30.22 in West 7.0 mph 16.0 mph 60% 0.00 in
13:24 20.3 °F 8.2 °F 30.22 in West 6.0 mph 16.0 mph 59% 0.00 in
13:29 20.2 °F 7.8 °F 30.22 in West 8.0 mph 15.0 mph 58% 0.00 in
13:34 20.0 °F 8.0 °F 30.21 in WSW 6.0 mph 15.0 mph 59% 0.00 in
13:39 20.2 °F 8.5 °F 30.22 in WSW 7.0 mph 15.0 mph 60% 0.00 in
13:44 20.1 °F 8.4 °F 30.22 in West 7.0 mph 18.0 mph 60% 0.00 in
13:49 20.0 °F 8.3 °F 30.22 in West 7.0 mph 14.0 mph 60% 0.00 in
13:54 20.2 °F 8.1 °F 30.22 in WSW 6.0 mph 15.0 mph 59% 0.00 in
13:59 20.3 °F 8.2 °F 30.22 in West 8.0 mph 13.0 mph 59% 0.00 in
14:04 20.1 °F 8.1 °F 30.21 in NW 7.0 mph 15.0 mph 59% 0.00 in
14:09 19.9 °F 7.9 °F 30.22 in WNW 5.0 mph 15.0 mph 59% 0.00 in
14:14 19.8 °F 7.8 °F 30.22 in West 7.0 mph 15.0 mph 59% 0.00 in
14:19 20.2 °F 7.4 °F 30.21 in West 7.0 mph 15.0 mph 57% 0.00 in
14:24 20.0 °F 6.4 °F 30.22 in West 7.0 mph 14.0 mph 55% 0.00 in
14:29 19.6 °F 6.4 °F 30.22 in West 7.0 mph 14.0 mph 56% 0.00 in
14:34 20.0 °F 6.8 °F 30.22 in West 8.0 mph 14.0 mph 56% 0.00 in
14:39 20.7 °F 7.5 °F 30.22 in WNW 8.0 mph 10.0 mph 56% 0.00 in
14:44 21.5 °F 7.8 °F 30.22 in West 7.0 mph 14.0 mph 55% 0.00 in
14:49 21.5 °F 7.8 °F 30.22 in West 7.0 mph 15.0 mph 55% 0.00 in
14:54 21.6 °F 7.5 °F 30.22 in WNW 6.0 mph 17.0 mph 54% 0.00 in
14:59 21.5 °F 7.8 °F 30.22 in West 8.0 mph 16.0 mph 55% 0.00 in
15:04 21.7 °F 8.0 °F 30.22 in WNW 7.0 mph 18.0 mph 55% 0.00 in
15:09 21.9 °F 8.2 °F 30.22 in WNW 6.0 mph 16.0 mph 55% 0.00 in
15:14 21.5 °F 7.4 °F 30.22 in West 9.0 mph 15.0 mph 54% 0.00 in
15:19 20.8 °F 7.2 °F 30.23 in West 8.0 mph 15.0 mph 55% 0.00 in
15:24 21.1 °F 8.6 °F 30.23 in West 7.0 mph 14.0 mph 58% 0.00 in
15:29 20.9 °F 8.8 °F 30.23 in WSW 6.0 mph 13.0 mph 59% 0.00 in
15:34 20.9 °F 8.4 °F 30.23 in WSW 7.0 mph 14.0 mph 58% 0.00 in
15:39 20.7 °F 7.1 °F 30.23 in West 6.0 mph 16.0 mph 55% 0.00 in
15:44 21.1 °F 7.8 °F 30.23 in WSW 5.0 mph 12.0 mph 56% 0.00 in
15:49 21.3 °F 8.4 °F 30.23 in West 7.0 mph 15.0 mph 57% 0.00 in
15:54 21.2 °F 8.7 °F 30.24 in WSW 7.0 mph 15.0 mph 58% 0.00 in
15:59 20.6 °F 7.8 °F 30.23 in WSW 8.0 mph 18.0 mph 57% 0.00 in
16:04 20.4 °F 8.0 °F 30.24 in WNW 7.0 mph 17.0 mph 58% 0.00 in
16:09 20.1 °F 8.4 °F 30.24 in SW 4.0 mph 15.0 mph 60% 0.00 in
16:14 20.0 °F 8.0 °F 30.24 in WSW 10.0 mph 15.0 mph 59% 0.00 in
16:19 20.2 °F 8.5 °F 30.24 in WSW 5.0 mph 13.0 mph 60% 0.00 in
16:24 19.5 °F 8.6 °F 30.24 in West 7.0 mph 13.0 mph 62% 0.00 in
16:29 19.1 °F 8.9 °F 30.24 in West 6.0 mph 13.0 mph 64% 0.00 in
16:34 19.0 °F 9.2 °F 30.24 in West 6.0 mph 13.0 mph 65% 0.00 in
16:44 18.9 °F 9.1 °F 30.24 in WSW 7.0 mph 14.0 mph 65% 0.00 in
16:49 18.9 °F 9.1 °F 30.25 in WSW 7.0 mph 16.0 mph 65% 0.00 in
16:54 18.9 °F 8.7 °F 30.25 in WSW 8.0 mph 18.0 mph 64% 0.00 in
16:59 18.9 °F 8.7 °F 30.25 in WNW 4.0 mph 14.0 mph 64% 0.00 in
17:04 18.9 °F 8.7 °F 30.25 in WNW 9.0 mph 14.0 mph 64% 0.00 in
17:09 18.5 °F 8.3 °F 30.25 in WSW 12.0 mph 14.0 mph 64% 0.00 in
17:14 18.3 °F 8.1 °F 30.25 in West 13.0 mph 17.0 mph 64% 0.00 in
17:19 18.1 °F 8.0 °F 30.26 in WSW 11.0 mph 15.0 mph 64% 0.00 in
17:24 18.0 °F 8.2 °F 30.26 in West 6.0 mph 12.0 mph 65% 0.00 in
17:29 18.0 °F 7.9 °F 30.26 in West 6.0 mph 14.0 mph 64% 0.00 in
17:34 17.9 °F 7.8 °F 30.26 in West 7.0 mph 14.0 mph 64% 0.00 in
17:39 17.7 °F 7.9 °F 30.26 in West 6.0 mph 14.0 mph 65% 0.00 in
17:44 17.7 °F 7.9 °F 30.27 in West 6.0 mph 14.0 mph 65% 0.00 in
17:49 17.6 °F 7.8 °F 30.27 in West 7.0 mph 14.0 mph 65% 0.00 in
17:54 17.5 °F 7.7 °F 30.27 in West 7.0 mph 14.0 mph 65% 0.00 in
17:59 17.5 °F 7.7 °F 30.27 in West 4.0 mph 14.0 mph 65% 0.00 in
18:04 17.4 °F 7.6 °F 30.27 in West 7.0 mph 15.0 mph 65% 0.00 in
18:09 17.3 °F 7.5 °F 30.28 in WNW 4.0 mph 15.0 mph 65% 0.00 in
18:14 17.3 °F 7.5 °F 30.28 in West 4.0 mph 18.0 mph 65% 0.00 in
18:19 17.3 °F 7.2 °F 30.28 in West 10.0 mph 16.0 mph 64% 0.00 in
18:24 17.2 °F 7.1 °F 30.28 in SW 8.0 mph 14.0 mph 64% 0.00 in
18:29 17.2 °F 7.1 °F 30.29 in West 12.0 mph 16.0 mph 64% 0.00 in
18:34 17.1 °F 7.0 °F 30.29 in West 9.0 mph 19.0 mph 64% 0.00 in
18:39 17.0 °F 6.9 °F 30.29 in WSW 7.0 mph 19.0 mph 64% 0.00 in
18:44 16.8 °F 6.7 °F 30.29 in WSW 7.0 mph 14.0 mph 64% 0.00 in
18:49 16.8 °F 6.7 °F 30.29 in WSW 5.0 mph 18.0 mph 64% 0.00 in
18:54 16.7 °F 6.6 °F 30.30 in West 8.0 mph 18.0 mph 64% 0.00 in
18:59 16.6 °F 6.9 °F 30.30 in West 6.0 mph 12.0 mph 65% 0.00 in
19:04 16.5 °F 6.8 °F 30.30 in West 17.0 mph 17.0 mph 65% 0.00 in
19:09 16.4 °F 7.0 °F 30.30 in West 8.0 mph 17.0 mph 66% 0.00 in
19:14 16.4 °F 7.0 °F 30.30 in West 8.0 mph 17.0 mph 66% 0.00 in
19:19 16.1 °F 7.1 °F 30.31 in West 7.0 mph 15.0 mph 67% 0.00 in
19:24 16.1 °F 7.1 °F 30.31 in West 11.0 mph 15.0 mph 67% 0.00 in
19:29 16.0 °F 7.3 °F 30.31 in WNW 4.0 mph 13.0 mph 68% 0.00 in
19:34 15.9 °F 7.2 °F 30.32 in West 8.0 mph 9.0 mph 68% 0.00 in
19:39 15.9 °F 7.2 °F 30.32 in West 5.0 mph 14.0 mph 68% 0.00 in
19:44 15.8 °F 7.1 °F 30.32 in West 7.0 mph 17.0 mph 68% 0.00 in
19:49 15.8 °F 7.1 °F 30.32 in West 7.0 mph 17.0 mph 68% 0.00 in
19:54 15.8 °F 7.4 °F 30.32 in West 6.0 mph 16.0 mph 69% 0.00 in
19:59 15.7 °F 7.3 °F 30.32 in West 6.0 mph 11.0 mph 69% 0.00 in
20:04 15.7 °F 7.3 °F 30.32 in WSW 3.0 mph 10.0 mph 69% 0.00 in
20:09 15.7 °F 7.3 °F 30.32 in WNW 7.0 mph 14.0 mph 69% 0.00 in
20:14 15.6 °F 7.2 °F 30.32 in West 6.0 mph 14.0 mph 69% 0.00 in
20:19 15.7 °F 7.3 °F 30.32 in West 6.0 mph 16.0 mph 69% 0.00 in
20:24 15.8 °F 7.7 °F 30.32 in West 8.0 mph 17.0 mph 70% 0.00 in
20:29 15.8 °F 7.7 °F 30.32 in West 8.0 mph 17.0 mph 70% 0.00 in
20:34 15.9 °F 7.8 °F 30.32 in West 13.0 mph 13.0 mph 70% 0.00 in
20:39 15.9 °F 7.5 °F 30.32 in West 9.0 mph 17.0 mph 69% 0.00 in
20:44 15.8 °F 7.4 °F 30.32 in WSW 7.0 mph 12.0 mph 69% 0.00 in
20:49 15.9 °F 7.5 °F 30.32 in West 6.0 mph 12.0 mph 69% 0.00 in
20:54 16.1 °F 7.7 °F 30.33 in West 10.0 mph 15.0 mph 69% 0.00 in
20:59 16.1 °F 7.7 °F 30.33 in WNW 5.0 mph 14.0 mph 69% 0.00 in
21:04 16.2 °F 7.8 °F 30.33 in WNW 9.0 mph 14.0 mph 69% 0.00 in
21:09 16.2 °F 7.8 °F 30.33 in WNW 5.0 mph 15.0 mph 69% 0.00 in
21:14 16.3 °F 7.9 °F 30.33 in WSW 4.0 mph 12.0 mph 69% 0.00 in
21:19 16.3 °F 7.9 °F 30.33 in West 6.0 mph 16.0 mph 69% 0.00 in
21:24 16.4 °F 7.7 °F 30.33 in West 7.0 mph 17.0 mph 68% 0.00 in
21:29 16.3 °F 7.6 °F 30.33 in West 8.0 mph 17.0 mph 68% 0.00 in
21:34 16.3 °F 7.6 °F 30.33 in West 7.0 mph 14.0 mph 68% 0.00 in
21:39 16.4 °F 7.7 °F 30.33 in West 7.0 mph 15.0 mph 68% 0.00 in
21:44 16.4 °F 7.7 °F 30.33 in West 6.0 mph 12.0 mph 68% 0.00 in
21:49 16.4 °F 7.7 °F 30.33 in West 9.0 mph 11.0 mph 68% 0.00 in
21:54 16.4 °F 7.3 °F 30.33 in West 7.0 mph 12.0 mph 67% 0.00 in
21:59 16.5 °F 7.4 °F 30.33 in SW 3.0 mph 13.0 mph 67% 0.00 in
22:04 16.7 °F 7.3 °F 30.33 in West 6.0 mph 10.0 mph 66% 0.00 in
22:09 16.7 °F 7.3 °F 30.33 in WSW 7.0 mph 13.0 mph 66% 0.00 in
22:14 17.0 °F 7.6 °F 30.33 in NW 5.0 mph 15.0 mph 66% 0.00 in
22:19 17.1 °F 7.7 °F 30.34 in WNW 6.0 mph 17.0 mph 66% 0.00 in
22:24 17.2 °F 7.8 °F 30.34 in West 6.0 mph 17.0 mph 66% 0.00 in
22:29 17.3 °F 7.5 °F 30.34 in West 7.0 mph 15.0 mph 65% 0.00 in
22:34 17.5 °F 7.7 °F 30.34 in West 7.0 mph 15.0 mph 65% 0.00 in
22:39 17.5 °F 7.7 °F 30.34 in West 6.0 mph 12.0 mph 65% 0.00 in
22:44 17.7 °F 7.9 °F 30.34 in West 6.0 mph 12.0 mph 65% 0.00 in
22:49 17.8 °F 8.0 °F 30.34 in West 10.0 mph 14.0 mph 65% 0.00 in
22:54 17.9 °F 7.8 °F 30.34 in WNW 7.0 mph 19.0 mph 64% 0.00 in
22:59 17.8 °F 8.0 °F 30.34 in West 7.0 mph 19.0 mph 65% 0.00 in
23:04 17.7 °F 7.9 °F 30.34 in WNW 6.0 mph 12.0 mph 65% 0.00 in
23:09 17.7 °F 7.9 °F 30.34 in West 6.0 mph 14.0 mph 65% 0.00 in
23:14 17.5 °F 7.7 °F 30.35 in West 10.0 mph 16.0 mph 65% 0.00 in
23:19 17.6 °F 7.8 °F 30.35 in WSW 8.0 mph 12.0 mph 65% 0.00 in
23:24 17.8 °F 8.0 °F 30.35 in WSW 5.0 mph 12.0 mph 65% 0.00 in
23:29 17.9 °F 8.1 °F 30.35 in West 7.0 mph 16.0 mph 65% 0.00 in
23:34 18.0 °F 8.2 °F 30.35 in West 8.0 mph 16.0 mph 65% 0.00 in
23:39 18.0 °F 8.2 °F 30.35 in West 7.0 mph 16.0 mph 65% 0.00 in
23:44 18.0 °F 8.2 °F 30.35 in West 6.0 mph 14.0 mph 65% 0.00 in
23:49 17.9 °F 8.5 °F 30.35 in West 6.0 mph 12.0 mph 66% 0.00 in
23:54 18.0 °F 8.5 °F 30.35 in SW 6.0 mph 19.0 mph 66% 0.00 in
23:59 18.3 °F 8.8 °F 30.35 in West 4.0 mph 14.0 mph 66% 0.00 in
Buffalo, New York, USA
Compliments of Weather Underground - 2.5 mb